Regional Weather Roundup
Issued by NWS Grand Forks, ND

Home | Current Version | Previous Version | Text Only | Print | Product List | Glossary On
Versions: 1 2 3 4 5 6 7 8 9 10 11 12 13 14 15 16 17 18 19 20 21 22 23 24 25 26 27 28 29 30 31 32 33 34 35 36 37 38 39 40 41 42 43 44 45 46 47 48 49 50
000
ASUS43 KFGF 241731
RWRFGF
PRAIRIE TO PINES  WEATHER ROUNDUP
NATIONAL WEATHER SERVICE EASTERN NORTH DAKOTA/GRAND FORKS ND
1200 PM CDT WED AUG 24 2016

 **SATELLITE DATA USED TO AUGMENT SKY COVER AT AUTOMATED STATIONS**
 *****  WEATHER ACROSS EASTERN NORTH DAKOTA  *****

CITY           SKY/WX    TMP DP  RH WIND       PRES   REMARKS
GRAND FORKS    FAIR      71  54  54 W18G28    29.86R
GRAND FRKS AFB FAIR      71  54  55 W18G28    29.88R
GRAND FRKS NWS   N/A     70 N/A N/A W21         N/A
DEVILS LAKE    PTSUNNY   66  52  60 W23       29.90R
FARGO          FAIR      73  53  49 W21G30    29.90F
WAHPETON ARPT  FAIR      70  52  52 W18       29.95R
$$

 ***** WEATHER ACROSS CENTRAL AND WESTERN NORTH DAKOTA  *****

CITY           SKY/WX    TMP DP  RH WIND       PRES   REMARKS
BISMARCK       CLOUDY    68  50  52 W21G30    30.02S
MINOT          FAIR      67  48  50 W18G35    29.92S
JAMESTOWN      FAIR      67  53  61 W16G25    29.96R
MINOT AFB      FAIR      65  49  56 W23G30    29.91R
GARRISON         N/A     64  48  56 W20G35    29.97S
WILLISTON      CLOUDY    62  46  55 W26G32    30.03R
DICKINSON      PTSUNNY   65  44  46 W26G35    30.05R
HETTINGER      CLOUDY    67  47  48 W26G35    30.13R
$$

 *****  OTHER AIRPORT OBSERVATIONS IN OUR AREA  *****

CITY           SKY/WX    TMP DP  RH WIND       PRES   REMARKS
WALHALLA       FAIR      68  64  88 W13G24    29.83R
GRAFTON AIRPOR FAIR      72  54  53 W17       29.87R
VALLEY CITY AR FAIR      68  54  60 W17G26    29.97S
CANDO          PTSUNNY   66  52  59 W21G31    29.90S
CAVALIER APRT  FAIR      72  52  49 W20       29.84R
GWINNER        FAIR      70  54  56 W14G23    29.98R
SHEYENNE NWR     N/A     70  52  53 NW14      29.95S
ROLLA          FAIR      64  50  59 W17G29    29.87S
 ***** THE ABOVE OBSERVATIONS ARE NON NWS ARE NOT QUALITY
       CONTROLLED AND MAY MIS-REPORT RAIN FOR SNOW...
$$

  *****  WEATHER ACROSS NORTHERN MINNESOTA  *****

CITY           SKY/WX    TMP DP  RH WIND       PRES   REMARKS
FLAG ISLAND    FAIR      73  52  46 W6        29.77R HAZE
WARROAD        FAIR      72  59  64 W13G22    29.81S
ROSEAU         FAIR      73  57  56 W13G21    29.82R
HALLOCK        FAIR      72  54  53 W16       29.83R
THF RVR FALLS  FAIR      70  54  56 W17       29.87R
BAUDETTE       FAIR      75  52  44 W13G21    29.80R
WASKISH        FAIR      73  57  56 SW17      29.84R
CROOKSTON      FAIR      72  55  56 W20G26    29.87F
STEPHEN NDAWN    N/A     72  54  53 W14         N/A
GREENBUSH NDAW   N/A     72  54  53 W12         N/A
$$
  *****  WEATHER ACROSS CENTRAL AND WEST MINNESOTA  *****

CITY           SKY/WX    TMP DP  RH WIND       PRES   REMARKS
FOSSTON        FAIR      70  54  56 W14       29.89S
BEMIDJI        FAIR      73  53  51 W13       29.87S
PARK RAPIDS    FAIR      75  54  47 W16       29.90R
ELBOW LAKE     FAIR      70  56  60 NW12G18   29.97R
WADENA         FAIR      72  55  56 W12       29.92S
DETROIT LAKES  FAIR      70  54  56 W14       29.93S
MOORHEAD       FAIR      73  52  46 W20       29.92R
FERGUS FALLS   FAIR      72  55  56 W12G20    29.96R
MORRIS MN      FAIR      75  55  50 W10       29.97R
STAPLES        FAIR      75  54  46 W12       29.91S
$$
  *****  WEATHER ELSEWHERE ACROSS MINNESOTA  *****

CITY           SKY/WX    TMP DP  RH WIND       PRES   REMARKS
DULUTH         CLOUDY    73  67  81 W6        29.84F
INTRNTL FALLS  FAIR      76  62  62 W13G18    29.79R
ELY            PTSUNNY   73  64  73 SW9       29.82S
CLOQUET        FAIR      75  64  69 W10       29.85F
WHEATON        FAIR      73  57  56 W16       29.98R
BRAINERD       FAIR      76  53  44 W10       29.89S
HIBBING        FAIR      76  59  55 W12G18    29.84R
ALEXANDRIA     FAIR      73  55  53 W10       29.97R
SAINT CLOUD    FAIR      78  57  48 NW13      29.90S
MINNEAPOLIS    PTSUNNY   77  67  71 NW7       29.90S
$$

  *****  WEATHER ACROSS SOUTH DAKOTA  *****

CITY           SKY/WX    TMP DP  RH WIND       PRES   REMARKS
SIOUX FALLS    CLOUDY    72  58  61 NW7       30.04R
BROOKINGS      FAIR      71  55  56 NW12      30.04R
WATERTOWN      FAIR      72  53  51 W10       30.02R
HURON          MOSUNNY   74  51  44 NW15      30.05R
SISSETON         N/A     72  54  53 NW13G22   29.96R
ABERDEEN       MOSUNNY   72  51  47 W16       30.02R
MITCHELL       CLOUDY    70  56  61 CALM      30.08R
PIERRE         PTSUNNY   68  49  50 NW15      30.10S
MOBRIDGE       MOSUNNY   72  49  44 NW15G25   30.05S
RAPID CITY     MOSUNNY   70  46  42 NW13      30.20S
$$

  *****  SOME WEATHER IN NEARBY STATES *****

CITY           SKY/WX    TMP DP  RH WIND       PRES   REMARKS
GLASGOW MT     CLOUDY    56  45  66 NW26G36   30.15R
GREAT FALLS MT CLOUDY    57  42  57 N17       30.36R
CHEYENNE WY    CLOUDY    59  42  53 SE9       30.30R
SCOTTSBLUFF NE CLOUDY    66  43  43 SE10      30.23S
OMAHA NE       PTSUNNY   79  66  64 N5        30.00R
DES MOINES IA  FAIR      82  70  66 W13       29.97R
DAVENPORT IA   FAIR      80  71  74 W10       29.95R
CHICAGO IL     PTSUNNY   76  73  91 S21G32    29.92F
EAU CLAIRE WI  PTSUNNY   78  67  68 W9        29.87R
LA CROSSE WI   CLOUDY    76  32  20 S8        29.88S
$$

  *****  SOME NATIONAL WEATHER *****

CITY           SKY/WX    TMP DP  RH WIND       PRES   REMARKS
LA GUARDIA NY  MOSUNNY   86  57  37 VRB5      30.22F
RALEIGH NC     PTSUNNY   82  61  48 CALM      30.29F
ATLANTA GA     PTSUNNY   84  73  69 SW10      30.26F HX  90
NEW ORLEANS LA PTSUNNY   91  76  61 NE5       30.15F HX 103
OKLAHOMA CITY  FAIR      90  67  46 SW21G30   30.06F HX  93
ALBUQUERQUE NM PTSUNNY   68  49  50 CALM      30.26S
SALT LAKE CITY MOSUNNY   76  33  21 VRB3      30.16S
LOS ANGELES CA MOSUNNY   73  60  63 W8        30.04S
BOISE ID       SUNNY     68  39  34 NW8       30.17S
SEATTLE WA     MOSUNNY   70  55  59 NE10      30.25S
$$

*** WEATHER ACROSS MANITOBA...SASKATCHEWAN AND ONTARIO ***
                ***ONTARIO***

CITY           SKY/WX    TMP DP  RH WIND       PRES   REMARKS
GERALDTON      PTSUNNY   79  66  65 S10       29.78F
THUNDER BAY    MOSUNNY   79  66  65 SW3       29.75F
SIOUX LOOKOUT  MOSUNNY   75  63  64 W12G21    29.71S
TORONTO        PTSUNNY   81  63  54 S13G21    30.10F
BIG TROUT LK   CLOUDY    57  50  77 E8        29.88S
PICKLE LAKE    TSTM      59  59 100 E5        29.74F FOG
DRYDEN         CLOUDY    70  61  73 W14       29.76R
KENORA         PTSUNNY   72  59  64 W9G21     29.77R
$$
                *** MANITOBA***

CITY           SKY/WX    TMP DP  RH WIND       PRES   REMARKS
BRANDON        PTSUNNY   64  55  72 W9G18     29.81S
DAUPHIN        PTSUNNY   64  59  82 W8        29.77S
ISLAND LAKE    PTSUNNY   61  50  67 NE9       29.90R
PILOT MOUND      N/A     64  50  59 W12G17      N/A
THE PAS        PTSUNNY   63  52  67 N8G18     29.97R
THOMPSON       PTSUNNY   57  48  72 NE9       30.02R
WINNIPEG       SUNNY     70  54  56 W21       29.78R
LYNN LAKE      SUNNY     64  45  48 MISG      30.07S
CHURCHILL      MOSUNNY   54  45  71 N9        29.98
GILLAM         PTSUNNY   61  46  59 N9        29.99F
$$
                ***SASKATCHEWAN***

CITY           SKY/WX    TMP DP  RH WIND       PRES   REMARKS
ESTEVAN        PTSUNNY   61  52  72 W20G26    29.93R
KINDERSLEY     CLOUDY    57  48  72 N16       30.20S
LLOYDMINSTER   PTSUNNY   64  50  59 N5        30.23S
PRINCE ALBERT  PTSUNNY   59  54  82 N7        30.10R
REGINA         LGT RAIN  54  54 100 NW16G24   29.97R FOG
YORKTON        LGT RAIN  55  54  94 N16G24    29.86R
N. BATTLEFORD  CLOUDY    59  50  72 NW13      30.19R
LA RONGE       MOSUNNY   68  52  56 N9        30.11S
SASKATOON      CLOUDY    57  54  88 N12       30.13R
SWIFT CURRENT  CLOUDY    50  48  93 NW16G24   30.15R
$$
NOTE: THESE ARE AUTOMATED STATIONS WITH LIMITED QUALITY CONTROL
      "FAIR" INDICATES FEW OR NO CLOUDS BELOW 12,000 FEET WITH NO
      SIGNIFICANT WEATHER AND/OR OBSTRUCTIONS TO VISIBILITY.
      SKY/WX - SKY CONDITION AND SIGNIFICANT WEATHER.
      TMP - AIR TEMPERATURE.    DP   - DEWPOINT TEMPERATURE.
      RH  - RELATIVE HUMIDITY.  PRES - PRESSURE.
      HX  - HEAT INDEX.         WCI  - WIND CHILL INDEX.
$




USA.gov is the U.S. government's official web portal to all federal, state and local government web resources and services.